Tracking 22879 objects as of 23-Apr-2021
HD Live streaming from Space Station
objects crossing your sky now

ONEWEB-0061

Track ONEWEB-0061 now!
10-day predictions
ONEWEB-0061 is classified as:


NORAD ID: 45428
Int'l Code: 2020-020E
Perigee: 1,221.3 km
Apogee: 1,224.3 km
Inclination: 87.9 °
Period: 109.8 minutes
Semi major axis: 7593 km
RCS: Unknown
Launch date: March 21, 2020
Source: United Kingdom (UK)
Launch site: TYURATAM MISSILE AND SPACE COMPLEX (TTMTR)
aabbcc
Your satellite tracking list
Your tracking list is empty




NASA's NSSDC Master Catalog

Two Line Element Set (TLE):
1 45428U 20020E   21112.31505308  .00000480  00000-0  13080-2 0  9995
2 45428  87.8948  35.1835 0001999  78.3059 281.8294 13.11938990 55978
Source of the keplerian elements: AFSPC